When you browse on this site, cookies collect data to enhance your experience and personalize the content and advertising you see.
Visit our Privacy Policy to learn more. By continuing to use the site, you agree to this use of cookies and data.
  • In Czech Republic
  • List of Countries
  • For 7 days
  • Water Temperature
  • Satellite Maps
  • Weather Map
  • Weather Widgets
  • user-avatar
    Login

    Hourly Weather Kamloops

    Today, 25 June, Tuesday

    Time Temperature Precipitation Wind Pressure Humidity
    00:00 +10°C° 0.1 mm 1 mps 701 mmHg 86%
    01:00 +10°C° 0.1 mm 1 mps 701 mmHg 88%
    02:00 +9°C° 0 mm 1 mps 701 mmHg 89%
    03:00 +9°C° 0 mm 1 mps 701 mmHg 91%
    04:00 +8°C° 0 mm 1 mps 701 mmHg 92%
    05:00 +9°C° 0 mm 0 mps 702 mmHg 86%
    06:00 +11°C° 0 mm 0 mps 702 mmHg 81%
    07:00 +14°C° 0 mm 0 mps 702 mmHg 75%
    08:00 +16°C° 0.1 mm 0 mps 702 mmHg 66%
    09:00 +19°C° 0.1 mm 0 mps 702 mmHg 56%
    10:00 +21°C° 0.1 mm 0 mps 702 mmHg 46%
    11:00 +22°C° 0.1 mm 0 mps 702 mmHg 41%
    12:00 +23°C° 0.1 mm 0 mps 701 mmHg 36%
    13:00 +24°C° 0.1 mm 0 mps 701 mmHg 31%
    14:00 +24°C° 0 mm 0 mps 701 mmHg 30%
    15:00 +24°C° 0 mm 0 mps 701 mmHg 30%
    16:00 +23°C° 0 mm 0 mps 701 mmHg 30%
    17:00 +22°C° 0 mm 0 mps 701 mmHg 36%
    18:00 +20°C° 0 mm 0 mps 700 mmHg 42%
    19:00 +19°C° 0 mm 0 mps 700 mmHg 49%
    20:00 +17°C° 0.3 mm 0 mps 701 mmHg 56%
    21:00 +15°C° 0.3 mm 1 mps 701 mmHg 64%
    22:00 +13°C° 0.3 mm 1 mps 701 mmHg 71%
    23:00 +13°C° 0.4 mm 1 mps 701 mmHg 76%

    Tomorrow, 26 June, Wednesday

    Time Temperature Precipitation Wind Pressure Humidity
    00:00 +12°C° 0.4 mm 1 mps 701 mmHg 81%
    01:00 +12°C° 0.4 mm 1 mps 701 mmHg 86%
    02:00 +11°C° 0.1 mm 1 mps 701 mmHg 87%
    03:00 +10°C° 0.1 mm 0 mps 701 mmHg 88%
    04:00 +10°C° 0.1 mm 0 mps 701 mmHg 89%
    05:00 +11°C° 0.4 mm 0 mps 702 mmHg 88%
    06:00 +12°C° 0.4 mm 0 mps 702 mmHg 86%
    07:00 +14°C° 0.4 mm 0 mps 702 mmHg 85%
    08:00 +16°C° 0.4 mm 0 mps 702 mmHg 76%
    09:00 +20°C° 0.4 mm 1 mps 702 mmHg 68%
    10:00 +22°C° 0.4 mm 1 mps 702 mmHg 59%
    11:00 +24°C° 0.3 mm 1 mps 702 mmHg 51%
    12:00 +25°C° 0.3 mm 1 mps 702 mmHg 43%
    13:00 +26°C° 0.3 mm 1 mps 702 mmHg 35%
    14:00 +26°C° 0 mm 1 mps 702 mmHg 35%
    15:00 +26°C° 0 mm 2 mps 701 mmHg 34%
    16:00 +26°C° 0 mm 2 mps 701 mmHg 34%
    17:00 +24°C° 0 mm 2 mps 701 mmHg 41%
    18:00 +23°C° 0 mm 1 mps 701 mmHg 49%
    19:00 +22°C° 0 mm 1 mps 700 mmHg 56%
    20:00 +19°C° 0.2 mm 1 mps 700 mmHg 65%
    21:00 +16°C° 0.2 mm 1 mps 700 mmHg 74%
    22:00 +14°C° 0.2 mm 2 mps 700 mmHg 82%
    23:00 +13°C° 0.1 mm 1 mps 700 mmHg 85%

    Day after tomorrow, 27 June, Thursday

    Time Temperature Precipitation Wind Pressure Humidity
    00:00 +13°C° 0.1 mm 1 mps 700 mmHg 87%
    01:00 +13°C° 0.1 mm 1 mps 700 mmHg 89%
    02:00 +13°C° 0.2 mm 1 mps 700 mmHg 90%
    03:00 +13°C° 0.2 mm 1 mps 700 mmHg 91%
    04:00 +13°C° 0.2 mm 1 mps 700 mmHg 92%
    05:00 +13°C° 0.7 mm 1 mps 701 mmHg 93%
    06:00 +14°C° 0.7 mm 1 mps 701 mmHg 94%
    07:00 +14°C° 0.7 mm 1 mps 701 mmHg 96%
    08:00 +15°C° 0.6 mm 1 mps 702 mmHg 90%
    09:00 +18°C° 0.6 mm 1 mps 702 mmHg 85%
    10:00 +19°C° 0.6 mm 1 mps 703 mmHg 80%
    11:00 +20°C° 0.9 mm 1 mps 703 mmHg 77%
    12:00 +20°C° 0.9 mm 1 mps 703 mmHg 75%
    13:00 +20°C° 0.9 mm 1 mps 703 mmHg 73%
    14:00 +20°C° 0.8 mm 1 mps 703 mmHg 71%
    15:00 +20°C° 0.8 mm 1 mps 703 mmHg 69%
    16:00 +20°C° 0.8 mm 1 mps 702 mmHg 68%
    17:00 +20°C° 0.5 mm 1 mps 703 mmHg 72%
    18:00 +19°C° 0.5 mm 1 mps 703 mmHg 76%
    19:00 +18°C° 0.5 mm 1 mps 703 mmHg 81%
    20:00 +15°C° 0 mm 1 mps 703 mmHg 83%
    21:00 +14°C° 0 mm 1 mps 703 mmHg 85%
    22:00 +13°C° 0 mm 1 mps 703 mmHg 88%
    23:00 +12°C° 0 mm 1 mps 703 mmHg 89%

    28 June, Friday

    Time Temperature Precipitation Wind Pressure Humidity
    00:00 +11°C° 0 mm 1 mps 703 mmHg 91%
    01:00 +11°C° 0 mm 1 mps 703 mmHg 93%
    02:00 +10°C° 0 mm 1 mps 703 mmHg 93%
    03:00 +10°C° 0 mm 1 mps 703 mmHg 94%
    04:00 +9°C° 0 mm 1 mps 703 mmHg 95%
    05:00 +10°C° 0 mm 1 mps 703 mmHg 91%
    06:00 +12°C° 0 mm 1 mps 703 mmHg 87%
    07:00 +13°C° 0 mm 1 mps 703 mmHg 83%
    08:00 +15°C° 0 mm 2 mps 703 mmHg 73%
    09:00 +16°C° 0 mm 2 mps 704 mmHg 64%
    10:00 +18°C° 0 mm 2 mps 704 mmHg 54%
    11:00 +19°C° 0.1 mm 2 mps 704 mmHg 49%
    12:00 +21°C° 0.1 mm 2 mps 704 mmHg 44%
    13:00 +23°C° 0.1 mm 2 mps 704 mmHg 39%
    14:00 +23°C° 0 mm 2 mps 703 mmHg 37%
    15:00 +23°C° 0 mm 2 mps 703 mmHg 35%
    16:00 +23°C° 0 mm 2 mps 703 mmHg 34%
    17:00 +21°C° 0 mm 2 mps 703 mmHg 41%
    18:00 +20°C° 0 mm 2 mps 703 mmHg 48%
    19:00 +20°C° 0 mm 1 mps 703 mmHg 55%
    20:00 +16°C° 0 mm 1 mps 703 mmHg 62%
    21:00 +14°C° 0 mm 1 mps 703 mmHg 68%
    22:00 +12°C° 0 mm 1 mps 703 mmHg 74%
    23:00 +12°C° 0.1 mm 1 mps 703 mmHg 79%

    29 June, Saturday

    Time Temperature Precipitation Wind Pressure Humidity
    00:00 +11°C° 0.1 mm 1 mps 703 mmHg 83%
    01:00 +10°C° 0.1 mm 1 mps 704 mmHg 87%
    02:00 +10°C° 0 mm 1 mps 704 mmHg 89%
    03:00 +9°C° 0 mm 1 mps 704 mmHg 90%
    04:00 +9°C° 0 mm 1 mps 704 mmHg 92%
    05:00 +11°C° 0 mm 1 mps 705 mmHg 87%
    06:00 +12°C° 0 mm 1 mps 705 mmHg 81%
    07:00 +14°C° 0 mm 1 mps 705 mmHg 75%
    08:00 +16°C° 0 mm 1 mps 705 mmHg 67%
    09:00 +19°C° 0 mm 1 mps 705 mmHg 59%
    10:00 +20°C° 0 mm 1 mps 705 mmHg 51%
    11:00 +20°C° 0.1 mm 2 mps 705 mmHg 47%
    12:00 +21°C° 0.1 mm 2 mps 705 mmHg 42%
    13:00 +23°C° 0.1 mm 2 mps 705 mmHg 38%
    14:00 +23°C° 0.1 mm 2 mps 705 mmHg 37%
    15:00 +23°C° 0.1 mm 2 mps 705 mmHg 36%
    16:00 +23°C° 0.1 mm 2 mps 705 mmHg 36%
    17:00 +21°C° 0.1 mm 2 mps 705 mmHg 45%
    18:00 +19°C° 0.1 mm 2 mps 705 mmHg 53%
    19:00 +18°C° 0.1 mm 2 mps 706 mmHg 62%
    20:00 +16°C° 0.1 mm 2 mps 706 mmHg 69%
    21:00 +15°C° 0.1 mm 1 mps 706 mmHg 77%
    22:00 +13°C° 0.1 mm 1 mps 707 mmHg 84%
    23:00 +13°C° 0.2 mm 1 mps 707 mmHg 87%

    30 June, Sunday

    Time Temperature Precipitation Wind Pressure Humidity
    00:00 +13°C° 0.2 mm 1 mps 707 mmHg 89%
    01:00 +12°C° 0.2 mm 1 mps 707 mmHg 91%
    02:00 +12°C° 0.2 mm 1 mps 707 mmHg 92%
    03:00 +12°C° 0.2 mm 1 mps 707 mmHg 93%
    04:00 +12°C° 0.2 mm 1 mps 708 mmHg 94%
    05:00 +12°C° 0.2 mm 1 mps 708 mmHg 94%
    06:00 +12°C° 0.2 mm 1 mps 708 mmHg 94%
    07:00 +13°C° 0.2 mm 1 mps 708 mmHg 94%
    08:00 +15°C° 0.1 mm 1 mps 708 mmHg 85%
    09:00 +16°C° 0.1 mm 0 mps 709 mmHg 75%
    10:00 +19°C° 0.1 mm 0 mps 709 mmHg 66%
    11:00 +20°C° 0.2 mm 0 mps 709 mmHg 61%
    12:00 +22°C° 0.2 mm 0 mps 709 mmHg 55%
    13:00 +23°C° 0.2 mm 0 mps 709 mmHg 50%
    14:00 +23°C° 0.1 mm 0 mps 709 mmHg 48%
    15:00 +23°C° 0.1 mm 0 mps 709 mmHg 47%
    16:00 +23°C° 0.1 mm 0 mps 708 mmHg 46%
    17:00 +22°C° 0 mm 0 mps 708 mmHg 51%
    18:00 +21°C° 0 mm 0 mps 708 mmHg 57%
    19:00 +20°C° 0 mm 0 mps 708 mmHg 62%
    20:00 +18°C° 0 mm 0 mps 708 mmHg 66%
    21:00 +18°C° 0 mm 1 mps 709 mmHg 71%
    22:00 +15°C° 0 mm 1 mps 709 mmHg 75%
    23:00 +15°C° 0 mm 1 mps 709 mmHg 77%
    Show more